When you browse on this site, cookies collect data to enhance your experience and personalize the content and advertising you see.
Visit our Privacy Policy to learn more. By continuing to use the site, you agree to this use of cookies and data.
  • In United Kingdom
  • List of Countries
  • For 7 days
  • Water Temperature
  • Weather Map
  • Weather Widgets
  • user-avatar
    Login

    Hourly Weather Córdoba

    Today, 3 June, Wednesday

    Time Temperature Precipitation Wind Pressure Humidity
    00:00 +8°C° 0 mm 4 mps 724 mmHg 55%
    01:00 +8°C° 0 mm 4 mps 724 mmHg 57%
    02:00 +8°C° 0 mm 3 mps 724 mmHg 60%
    03:00 +8°C° 0 mm 3 mps 724 mmHg 63%
    04:00 +7°C° 0 mm 3 mps 724 mmHg 67%
    05:00 +7°C° 0 mm 3 mps 724 mmHg 70%
    06:00 +7°C° 0 mm 2 mps 724 mmHg 70%
    07:00 +7°C° 0 mm 2 mps 725 mmHg 70%
    08:00 +8°C° 0 mm 2 mps 725 mmHg 69%
    09:00 +9°C° 0 mm 2 mps 726 mmHg 65%
    10:00 +10°C° 0 mm 2 mps 726 mmHg 61%
    11:00 +12°C° 0 mm 2 mps 726 mmHg 57%
    12:00 +12°C° 0 mm 2 mps 726 mmHg 57%
    13:00 +12°C° 0 mm 2 mps 726 mmHg 58%
    14:00 +12°C° 0 mm 2 mps 726 mmHg 59%
    15:00 +10°C° 0 mm 2 mps 726 mmHg 61%
    16:00 +10°C° 0 mm 2 mps 726 mmHg 63%
    17:00 +10°C° 0 mm 2 mps 727 mmHg 64%
    18:00 +10°C° 0 mm 2 mps 728 mmHg 66%
    19:00 +10°C° 0 mm 3 mps 728 mmHg 67%
    20:00 +10°C° 0 mm 3 mps 729 mmHg 68%
    21:00 +9°C° 0.1 mm 3 mps 729 mmHg 71%
    22:00 +9°C° 0.1 mm 2 mps 730 mmHg 74%
    23:00 +9°C° 0.1 mm 2 mps 730 mmHg 77%

    Tomorrow, 4 June, Thursday

    Time Temperature Precipitation Wind Pressure Humidity
    00:00 +9°C° 0.2 mm 2 mps 730 mmHg 79%
    01:00 +9°C° 0.2 mm 2 mps 730 mmHg 80%
    02:00 +9°C° 0.2 mm 2 mps 730 mmHg 81%
    03:00 +9°C° 0 mm 2 mps 730 mmHg 78%
    04:00 +10°C° 0 mm 1 mps 729 mmHg 76%
    05:00 +11°C° 0 mm 1 mps 729 mmHg 73%
    06:00 +11°C° 0 mm 1 mps 729 mmHg 73%
    07:00 +11°C° 0 mm 1 mps 730 mmHg 72%
    08:00 +11°C° 0 mm 1 mps 730 mmHg 72%
    09:00 +12°C° 0 mm 1 mps 730 mmHg 68%
    10:00 +13°C° 0 mm 1 mps 730 mmHg 65%
    11:00 +14°C° 0 mm 1 mps 729 mmHg 61%
    12:00 +15°C° 0 mm 1 mps 729 mmHg 58%
    13:00 +16°C° 0 mm 1 mps 728 mmHg 54%
    14:00 +16°C° 0 mm 1 mps 728 mmHg 51%
    15:00 +16°C° 0.1 mm 2 mps 727 mmHg 53%
    16:00 +15°C° 0.1 mm 2 mps 727 mmHg 55%
    17:00 +15°C° 0.1 mm 2 mps 727 mmHg 58%
    18:00 +14°C° 0 mm 2 mps 727 mmHg 61%
    19:00 +13°C° 0 mm 1 mps 727 mmHg 64%
    20:00 +12°C° 0 mm 1 mps 727 mmHg 67%
    21:00 +12°C° 0 mm 1 mps 728 mmHg 69%
    22:00 +12°C° 0 mm 1 mps 728 mmHg 71%
    23:00 +11°C° 0 mm 1 mps 728 mmHg 74%

    Day after tomorrow, 5 June, Friday

    Time Temperature Precipitation Wind Pressure Humidity
    00:00 +11°C° 0.1 mm 1 mps 728 mmHg 76%
    01:00 +10°C° 0.1 mm 2 mps 728 mmHg 78%
    02:00 +10°C° 0.1 mm 2 mps 728 mmHg 80%
    03:00 +10°C° 0.8 mm 2 mps 727 mmHg 80%
    04:00 +10°C° 0.8 mm 2 mps 727 mmHg 81%
    05:00 +10°C° 0.8 mm 2 mps 727 mmHg 81%
    06:00 +10°C° 0.1 mm 2 mps 727 mmHg 79%
    07:00 +10°C° 0.1 mm 2 mps 727 mmHg 77%
    08:00 +12°C° 0.1 mm 1 mps 727 mmHg 75%
    09:00 +13°C° 0 mm 2 mps 727 mmHg 67%
    10:00 +15°C° 0 mm 2 mps 727 mmHg 58%
    11:00 +17°C° 0 mm 3 mps 727 mmHg 50%
    12:00 +17°C° 0 mm 3 mps 726 mmHg 45%
    13:00 +18°C° 0 mm 3 mps 726 mmHg 41%
    14:00 +19°C° 0 mm 3 mps 725 mmHg 36%
    15:00 +18°C° 0 mm 3 mps 725 mmHg 38%
    16:00 +17°C° 0 mm 2 mps 725 mmHg 40%
    17:00 +16°C° 0 mm 2 mps 724 mmHg 42%
    18:00 +15°C° 0 mm 2 mps 724 mmHg 46%
    19:00 +14°C° 0 mm 1 mps 725 mmHg 50%
    20:00 +12°C° 0 mm 1 mps 725 mmHg 54%
    21:00 +12°C° 0 mm 1 mps 725 mmHg 56%
    22:00 +12°C° 0 mm 1 mps 725 mmHg 57%
    23:00 +11°C° 0 mm 1 mps 725 mmHg 58%

    6 June, Saturday

    Time Temperature Precipitation Wind Pressure Humidity
    00:00 +11°C° 0 mm 1 mps 725 mmHg 59%
    01:00 +11°C° 0 mm 1 mps 724 mmHg 59%
    02:00 +11°C° 0 mm 1 mps 724 mmHg 60%
    03:00 +10°C° 0 mm 1 mps 724 mmHg 60%
    04:00 +10°C° 0 mm 1 mps 724 mmHg 60%
    05:00 +10°C° 0 mm 1 mps 723 mmHg 60%
    06:00 +10°C° 0 mm 1 mps 723 mmHg 59%
    07:00 +11°C° 0 mm 1 mps 724 mmHg 58%
    08:00 +11°C° 0 mm 1 mps 724 mmHg 57%
    09:00 +13°C° 0 mm 1 mps 724 mmHg 51%
    10:00 +16°C° 0 mm 2 mps 724 mmHg 45%
    11:00 +18°C° 0 mm 3 mps 724 mmHg 39%
    12:00 +19°C° 0 mm 3 mps 724 mmHg 38%
    13:00 +20°C° 0 mm 3 mps 723 mmHg 37%
    14:00 +21°C° 0 mm 4 mps 723 mmHg 35%
    15:00 +20°C° 0 mm 3 mps 722 mmHg 40%
    16:00 +19°C° 0 mm 3 mps 722 mmHg 45%
    17:00 +18°C° 0 mm 3 mps 722 mmHg 50%
    18:00 +16°C° 0 mm 2 mps 722 mmHg 53%
    19:00 +15°C° 0 mm 2 mps 723 mmHg 56%
    20:00 +14°C° 0 mm 1 mps 723 mmHg 59%
    21:00 +13°C° 0 mm 1 mps 723 mmHg 61%
    22:00 +12°C° 0 mm 1 mps 724 mmHg 63%
    23:00 +12°C° 0 mm 1 mps 724 mmHg 64%

    7 June, Sunday

    Time Temperature Precipitation Wind Pressure Humidity
    00:00 +11°C° 0 mm 1 mps 724 mmHg 65%
    01:00 +11°C° 0 mm 1 mps 724 mmHg 66%
    02:00 +10°C° 0 mm 0 mps 725 mmHg 66%
    03:00 +9°C° 0 mm 0 mps 725 mmHg 67%
    04:00 +9°C° 0 mm 0 mps 725 mmHg 68%
    05:00 +9°C° 0 mm 0 mps 725 mmHg 68%
    06:00 +10°C° 0 mm 1 mps 725 mmHg 68%
    07:00 +10°C° 0 mm 1 mps 726 mmHg 67%
    08:00 +11°C° 0 mm 1 mps 726 mmHg 66%
    09:00 +13°C° 0 mm 2 mps 726 mmHg 59%
    10:00 +16°C° 0 mm 3 mps 726 mmHg 52%
    11:00 +18°C° 0 mm 4 mps 727 mmHg 45%
    12:00 +19°C° 0 mm 4 mps 726 mmHg 44%
    13:00 +19°C° 0 mm 5 mps 726 mmHg 43%
    14:00 +20°C° 0 mm 5 mps 725 mmHg 41%
    15:00 +19°C° 0 mm 4 mps 725 mmHg 46%
    16:00 +18°C° 0 mm 4 mps 725 mmHg 51%
    17:00 +17°C° 0 mm 3 mps 724 mmHg 55%
    18:00 +16°C° 0 mm 3 mps 724 mmHg 59%
    19:00 +14°C° 0 mm 3 mps 725 mmHg 63%
    20:00 +13°C° 0 mm 3 mps 725 mmHg 68%
    21:00 +13°C° 0 mm 3 mps 725 mmHg 68%
    22:00 +12°C° 0 mm 3 mps 725 mmHg 69%
    23:00 +12°C° 0 mm 3 mps 725 mmHg 69%

    8 June, Monday

    Time Temperature Precipitation Wind Pressure Humidity
    00:00 +12°C° 0 mm 3 mps 725 mmHg 70%
    01:00 +12°C° 0 mm 3 mps 725 mmHg 70%
    02:00 +12°C° 0 mm 3 mps 724 mmHg 70%
    03:00 +12°C° 0 mm 3 mps 724 mmHg 72%
    04:00 +12°C° 0 mm 3 mps 723 mmHg 74%
    05:00 +12°C° 0 mm 2 mps 723 mmHg 76%
    06:00 +12°C° 0 mm 2 mps 723 mmHg 76%
    07:00 +12°C° 0 mm 2 mps 723 mmHg 76%
    08:00 +13°C° 0 mm 2 mps 724 mmHg 75%
    09:00 +15°C° 0 mm 2 mps 724 mmHg 67%
    10:00 +18°C° 0 mm 2 mps 724 mmHg 58%
    11:00 +20°C° 0 mm 2 mps 723 mmHg 50%
    12:00 +21°C° 0 mm 2 mps 723 mmHg 46%
    13:00 +23°C° 0 mm 2 mps 722 mmHg 43%
    14:00 +25°C° 0 mm 2 mps 722 mmHg 40%
    15:00 +23°C° 0 mm 2 mps 721 mmHg 46%
    16:00 +21°C° 0 mm 2 mps 721 mmHg 52%
    17:00 +19°C° 0 mm 2 mps 721 mmHg 58%
    18:00 +18°C° 0 mm 2 mps 721 mmHg 64%
    19:00 +18°C° 0 mm 1 mps 721 mmHg 70%
    20:00 +16°C° 0 mm 1 mps 721 mmHg 76%
    21:00 +15°C° 0 mm 1 mps 722 mmHg 77%
    22:00 +15°C° 0 mm 1 mps 722 mmHg 79%
    23:00 +14°C° 0 mm 0 mps 722 mmHg 80%
    Show more